Skip Page Navigation
NASA JPL Caltech
NASA Logo - Jet Propulsion Laboratory + View the NASA Portal
+ Center for Near-Earth Object Studies
JPL Home Earth Solar System Stars & Galaxies Technology
JPL Solar System Dynamics
BODIES ORBITS EPHEMERIDES TOOLS PHYSICAL DATA DISCOVERY FAQ SITE MAP
IMPORTANT: The SSD Announcement email list is now available. Major changes are coming in the near future, including possible hostname and/or URL changes. To be notified of such changes, subscribe to this email list.

Please visit this page for more details.


JPL Small-Body Database Browser
Search: [ help ]  
351601 (2005 VX82)
Classification: Main-belt Asteroid          SPK-ID: 2351601
Ephemeris | Orbit Diagram | Orbital Elements | Mission Design | Physical Parameters | Discovery Circumstances ]

[ show orbit diagram ]
Orbital Elements at Epoch 2458600.5 (2019-Apr-27.0) TDB
Reference: JPL 8 (heliocentric ecliptic J2000)
 Element Value Uncertainty (1-sigma)   Units 
e .09168158682126396 6.7598e-08  
a 2.207290359107454 1.6724e-08 au
q 2.004922476409205 1.5645e-07 au
i 3.594739346718993 5.619e-06 deg
node 141.6471898607712 9.9361e-05 deg
peri 313.2798776632048 0.00011034 deg
M 4.289758991814493 4.0501e-05 deg
tp 2458586.226909517782
(2019-Apr-12.72690952)
0.00013481 TDB
period 1197.809150444862
3.28
1.3613e-05
3.727e-08
d
yr
n .3005487141806333 3.4158e-09 deg/d
Q 2.409658241805702 1.8258e-08 au
  Orbit Determination Parameters
   # obs. used (total)      133  
   data-arc span      8470 days (23.19 yr)  
   first obs. used      1995-10-25  
   last obs. used      2019-01-02  
   planetary ephem.      DE431  
   SB-pert. ephem.      SB431-N16  
   condition code      0  
   norm. resid. RMS      .53793  
   source      ORB  
   producer      Otto Matic  
   solution date      2019-Jul-14 13:01:09  

Additional Information
 Earth MOID = 1.02378 au 
 Jupiter MOID = 2.70438 au 
 T_jup = 3.652 
[ show covariance matrix ]

Ephemeris | Orbit Diagram | Orbital Elements | Mission Design | Physical Parameters | Discovery Circumstances ]

Physical Parameter Table
Parameter Symbol Value Units Sigma Reference Notes
absolute magnitude H 18.0   n/a MPO373051  

351601 (2005 VX82)          Discovered 2005-Nov-03 by Mt. Lemmon Survey at Mount Lemmon
Reference: 20130127/Numbers.arcLast Updated: 2013-01-31

Alternate Designations
 2005 VX82 = 2010 FB14 
Ephemeris | Orbit Diagram | Orbital Elements | Mission Design | Physical Parameters | Discovery Circumstances ]
ABOUT SSD CREDITS/AWARDS PRIVACY/COPYRIGHT GLOSSARY LINKS
FirstGov
(server date/time)  
NASA Home Page
Site Manager:   Ryan S. Park
Webmaster  Alan B. Chamberlin